Location: Unspecified
(0.0000°N, 0.0000°E)
Time: 20:47:20
(UTC+00:00)

INTEGRAL - Pass Details

Date: 20 January 2022
Orbit: 2363 x 147089 km, 74.6° (Epoch: 26 May)

Event Time Altitude Azimuth Distance (km) Brightness Sun altitude
Rises 01:06:33 0° 39° (NE) 146,229 13.9 -65.7°
Reaches altitude 10° 02:12:07 10° 38° (NE) 143,128 13.9 -54.1°
Maximum altitude 07:16:24 42° 357° (N) 127,244 13.6 15.3°
Drops below altitude 10° 12:01:40 10° 313° (NW) 112,132 13.4 69.8°
Sets 12:57:07 0° 310° (NW) 108,873 13.3 67.0°
